AirNav   ProFlight Series 2 Aviation Headset
 
 1010 users online  

PS55 Core States - 1st PA Heliport
Philadelphia, Pennsylvania, USA

GOING TO PHILADELPHIA?


FAA INFORMATION EFFECTIVE 18 JUNE 2020

Location

FAA Identifier: PS55
Lat/Long: 39-57-30.4050N 075-11-28.6450W
39-57.506750N 075-11.477417W
39.9584458,-75.1912903
(estimated)
Elevation: 80 ft. / 24 m (estimated)
Variation: 11W (1985)
Time zone: UTC -4 (UTC -5 during Standard Time)
Zip code: 19104

Heliport Operations

Heliport use: Private use. Permission required prior to landing
Activation date: 07/1985
Control tower: no
ARTCC: NEW YORK CENTER
FSS: WILLIAMSPORT FLIGHT SERVICE STATION
Attendance: MON-FRI 0800-1730
Wind indicator: yes
Segmented circle: no
Lights: SS-SR

Heliport Communications

WX ASOS at PHL (6 nm SW): PHONE 215-492-9617
WX ASOS at PNE (11 nm NE): 121.15 (215-677-0146)
WX AWOS-3 at LOM (11 nm N): 118.925 (215-646-1068)
WX ASOS at VAY (16 nm E): 119.325 (609-267-1176)
WX AWOS-3T at OQN (18 nm W): 121.4 ((610) 692-6190)
  • MULTICOM 132.0.

Nearby radio navigation aids

VOR radial/distance  VOR name  Freq  Var
OODr025/20.0WOODSTOWN VORTAC112.8010W
ARDr226/22.0YARDLEY VOR/DME108.2010W
MXEr093/22.2MODENA VORTAC113.2009W
PTWr142/23.2POTTSTOWN VORTAC116.5009W
DQOr059/25.5DUPONT VORTAC114.0010W
VCNr348/27.3CEDAR LAKE VOR/DME115.2010W
GXUr276/27.5MC GUIRE VORTAC110.6012W
RBVr255/35.2ROBBINSVILLE VORTAC113.8010W
CYNr294/36.0COYLE VORTAC113.4010W

 
NDB name  Hdg/Dist  Freq  Var  ID
AMBLER169/10.927512WING .. -. --.
RAINBOW006/32.536311WRNB .-. -. -...
LAKEHURST273/39.739611WNEL -. . .-..

Heliport Services

Runway Information

Helipad H1

Dimensions: 50 x 50 ft. / 15 x 15 m
Surface: asphalt, in good condition
ROOFTOP.
Runway edge lights: PERI
AND FLOOD LGTS.
Latitude: 39-57.506750N
Longitude: 075-11.477417W
Elevation: 80.0 ft.
Traffic pattern: leftleft

Heliport Ownership and Management from official FAA records

Ownership: Privately-owned
Owner: CORE STATES - 1ST PA BANK
1500 MARKET STREET
PHILADELPHIA, PA 19101
Manager: EDWARD R MANLEY
BROAD & CHESTNUT STS
PHILADELPHIA, PA 19101
Phone 215-786-7470

Additional Remarks

FOR CD CTC PHILADELPHIA APCH AT 800-354-9884.

Instrument Procedures

There are no published instrument procedures at PS55.

Some nearby airports with instrument procedures:

KPHL - Philadelphia International Airport (6 nm SW)
KPNE - Northeast Philadelphia Airport (11 nm NE)
KLOM - Wings Field Airport (11 nm N)
19N - Camden County Airport (16 nm SE)
KVAY - South Jersey Regional Airport (16 nm E)
7N7 - Spitfire Aerodrome (16 nm SW)
17N - Cross Keys Airport (17 nm SE)
N14 - Flying W Airport (18 nm E)
KOQN - Brandywine Regional Airport (18 nm W)
N10 - Perkiomen Valley Airport (18 nm NW)
 
Loc | Ops | Rwys | IFR | FBO | Links
Com | Nav | Svcs | Stats | Notes
Area around PS55 (Core States - 1st PA Heliport)
 
Road maps at: MapQuest Bing Google
 
Aerial photo
No photo
 
Sectional chart

 
Airport distance calculator
Flying to Core States - 1st PA Heliport? Find the distance to fly.

From to PS55

Sunrise and sunset
Times for 11-Jul-2020
 Local
(UTC-4)
 Zulu
(UTC)
Morning civil twilight05:1109:11
Sunrise05:4309:43
Sunset20:2900:29
Evening civil twilight21:0101:01

Current date and time
Zulu (UTC)  11-Jul-2020 18:10:09
Local (UTC-4)  11-Jul-2020 14:10:09
 
METAR
KPHL 
6nm S 
111754Z 31010KT 10SM -RA BKN035 BKN050CB BKN080 BKN140 BKN240 28/23 A2969 RMK AO2 RAB43 SLP052 CB OHD MOV NE P0000 60000 T02830228 10294 20250 58009
KPNE 
11nm NE 
111754Z 20007KT 10SM FEW034 FEW042 29/22 A2969 RMK AO2 SLP052 T02890222 10300 20239 58013
KLOM 
11nm N 
111755Z AUTO 17011KT 10SM SCT025 SCT033 BKN046 27/24 A2970 RMK AO2 P0001 T02740236 10293 20242 60007
KVAY 
17nm E 
ASOS 119.325 609-267-1176
111754Z AUTO VRB04KT 10SM CLR 31/22 A2968 RMK AO2 SLP049 T03060217 10306 20250 58012
KOQN 
18nm W 
111755Z AUTO 23005KT 10SM BKN030 BKN037 BKN095 30/22 A2970 RMK AO2
TAF
KPHL 
6nm S 
111738Z 1118/1224 21008KT P6SM -SHRA VCTS SCT025 BKN050CB TEMPO 1118/1120 2SM +TSRA OVC025CB FM112300 27008KT P6SM SCT050 FM120700 26004KT P6SM SCT250 FM121400 25008KT P6SM SCT050
KPNE 
11nm NE 
111738Z 1118/1218 21008KT P6SM -SHRA VCTS SCT025 BKN050CB TEMPO 1118/1120 2SM +TSRA OVC025CB FM112300 27006KT P6SM SCT050 FM120700 27003KT P6SM SCT250 FM121200 26007KT P6SM SCT050
NOTAMs
Click for the latest NOTAMs
NOTAMs are issued by the DoD/FAA and will open in a separate window not controlled by AirNav.

 

 
 

Would you like to see your business listed on this page?

 If your business provides an interesting product or service to pilots, flight crews, aircraft, or users of the Core States - 1st PA Heliport, you should consider listing it here.  To start the listing process, click on the button below
 
Add a business
 

Other Pages about Core States - 1st PA Heliport

Update a link
 
Copyright © AirNav, LLC. All rights reserved. Privacy Policy  Contact